Location: Bouysse
(45.3674°N, 1.8947°E)
Time: 18:42:12
(UTC+00:00)

ATLAS 5 CENTAUR R/B - Pass Details

Date: 07 June 2020
Orbit: 542 x 1117 km, 63.4° (Epoch: 06 July)

Event Time Altitude Azimuth Distance (km) Brightness Sun altitude
Rises 02:52:42 0° 166° (SSE) 2,696 4.5 -10.3°
Reaches altitude 10° 02:55:52 10° 138° (SE) 1,848 4.0 -10.0°
Maximum altitude 02:57:48 13° 109° (ESE) 1,692 4.1 -9.7°
Drops below altitude 10° 02:59:49 10° 81° (E) 1,937 5.0 -9.5°
Sets 03:03:17 0° 54° (NE) 2,950 7.1 -9.1°
